Location: Unspecified
(0.0000°N, 0.0000°E)
Time: 06:34:07
(UTC+00:00)

Transit 2A - Pass Details

Date: 28 November 2019
Orbit: 602 x 957 km, 66.7° (Epoch: 11 December)

Event Time Altitude Azimuth Distance (km) Brightness Sun altitude
Rises 19:06:51 0° 15° (NNE) 2,984 - -18.3°
Reaches altitude 10° 19:10:11 10° 41° (NE) 2,144 - -19.1°
Maximum altitude 19:12:40 14° 72° (ENE) 1,945 - -19.7°
Drops below altitude 10° 19:15:15 10° 103° (ESE) 2,263 - -20.3°
Sets 19:18:56 0° 127° (SE) 3,281 - -21.1°
